Stations météo

réclame
Mon MeteoGroup
La Hague, France (7020): Température de l'air & dewpoint: 24.09.2020 04:00:00 - 30.09.2020 04:00:00 (CEST)La Hague, France (7020): Vitesse du vent & gusts: 24.09.2020 04:00:00 - 30.09.2020 04:00:00 (CEST)La Hague, France (7020): Direction du vent: 24.09.2020 04:00:00 - 30.09.2020 04:00:00 (CEST)La Hague, France (7020): reduced air pressure: 24.09.2020 04:00:00 - 30.09.2020 04:00:00 (CEST)La Hague, France (7020): visibility: 24.09.2020 04:00:00 - 30.09.2020 04:00:00 (CEST)La Hague, France (7020): Quantités de précipitations: 24.09.2020 04:00:00 - 30.09.2020 04:00:00 (CEST)
Date & Time tt [°C] td [°C] ff [km/h] ff [knt] fx [km/h] fx [knt] dd ppp [hPa] vv [km] rr [mm]
30.09.2020 04:00:00 15,8 10,5 22 12 34 18 SW 1013,6 - 0,0
30.09.2020 03:00:00 15,7 10,0 20 11 29 16 SW 1014,5 - 0,0
30.09.2020 02:00:00 15,6 9,7 18 10 29 15 SW 1015,2 16 0,0
30.09.2020 01:00:00 15,3 9,0 19 11 27 14 SW 1015,6 - 0,0
30.09.2020 00:00:00 14,6 8,8 16 9 21 12 SW 1015,8 - 0,0
29.09.2020 23:00:00 14,9 8,8 15 8 21 12 WSW 1016,3 15 0,0
29.09.2020 22:00:00 14,9 8,4 14 8 23 12 W 1016,7 - 0,0
29.09.2020 21:00:00 15,2 9,3 18 10 23 13 W 1016,8 - 0,0
29.09.2020 20:00:00 15,3 8,8 17 9 27 14 W 1016,7 15 0,0
29.09.2020 19:00:00 16,1 9,5 22 12 29 16 WSW 1016,6 - 0,0
29.09.2020 18:00:00 17,1 10,0 21 11 27 15 WSW 1016,7 - 0,0
29.09.2020 17:00:00 17,6 10,7 19 10 27 15 WSW 1017,0 15 0,0
29.09.2020 16:00:00 17,5 10,1 20 11 27 14 WSW 1017,3 - 0,0
29.09.2020 15:00:00 17,9 11,7 21 11 28 15 W 1017,4 - 0,0
29.09.2020 14:00:00 18,1 12,5 18 10 27 14 W 1017,6 14 0,0
29.09.2020 13:00:00 17,3 12,8 19 10 24 13 WSW 1017,7 - 0,0
29.09.2020 12:00:00 17,9 14,0 16 9 25 14 W 1017,8 - 0,0
29.09.2020 11:00:00 16,7 13,2 19 10 28 15 W 1017,6 10 0,0
29.09.2020 10:00:00 16,3 13,4 22 12 29 16 W 1017,2 - 0,0
29.09.2020 09:00:00 16,0 13,7 22 12 32 17 W 1016,8 - 0,0
29.09.2020 08:00:00 16,0 14,4 23 13 30 16 W 1016,2 10 0,0
29.09.2020 07:00:00 16,0 14,2 22 12 32 17 W 1015,8 - 0,0
29.09.2020 06:00:00 16,3 14,5 25 14 34 18 W 1015,6 - 0,0
29.09.2020 05:00:00 16,4 14,9 24 13 35 19 W 1015,6 10 0,0
29.09.2020 04:00:00 16,3 15,3 23 12 36 19 W 1015,6 - 0,2
29.09.2020 03:00:00 16,6 15,6 26 14 40 22 WSW 1015,4 - 0,0
29.09.2020 02:00:00 16,8 15,8 27 14 37 20 WSW 1015,5 10 0,0
29.09.2020 01:00:00 16,8 15,8 24 13 35 19 WSW 1015,9 - 0,0
29.09.2020 00:00:00 16,7 15,6 24 13 35 19 WSW 1016,0 - 0,0
28.09.2020 23:00:00 16,7 15,4 23 12 33 18 WSW 1016,1 10 0,0
28.09.2020 22:00:00 16,7 15,4 26 14 36 20 WSW 1016,1 - 0,0
28.09.2020 21:00:00 16,7 15,6 27 15 36 19 WSW 1015,9 - 0,0
28.09.2020 20:00:00 16,7 15,7 26 14 34 18 WSW 1015,5 12 0,0
28.09.2020 19:00:00 16,4 15,4 22 12 31 17 WSW 1015,2 - 0,2
28.09.2020 18:00:00 16,5 14,5 22 12 33 18 WSW 1015,0 - 0,0
28.09.2020 17:00:00 16,9 13,6 22 12 29 15 WSW 1015,1 12 0,0
28.09.2020 16:00:00 17,7 13,4 22 12 32 17 W 1015,2 - 0,0
28.09.2020 15:00:00 16,8 13,5 22 12 31 17 WSW 1015,5 - 0,0
28.09.2020 14:00:00 16,2 12,0 17 9 25 14 WSW 1015,9 18 0,0
28.09.2020 13:00:00 16,2 11,8 18 10 29 16 W 1015,6 - 0,0
28.09.2020 12:00:00 15,9 11,3 16 9 22 12 WNW 1015,5 - 0,0
28.09.2020 11:00:00 15,1 10,1 21 11 34 18 NW 1015,6 18 0,0
28.09.2020 10:00:00 14,7 9,5 22 12 32 18 NNW 1015,2 - 0,0
28.09.2020 09:00:00 13,8 8,6 23 13 33 18 NW 1015,0 - 0,0
28.09.2020 08:00:00 13,2 6,8 22 12 33 18 NW 1014,5 14 0,0
28.09.2020 07:00:00 13,1 8,2 20 11 30 16 NNW 1014,4 - 0,0
28.09.2020 06:00:00 13,3 9,0 21 11 30 16 NW 1014,2 - 0,0
28.09.2020 05:00:00 13,5 8,5 22 12 33 18 NNW 1014,6 12 0,0
28.09.2020 04:00:00 13,8 8,6 24 13 34 18 NNW 1014,9 - 0,0
28.09.2020 03:00:00 14,2 8,4 23 12 32 17 N 1015,2 - 0,0
28.09.2020 02:00:00 14,2 9,2 23 12 38 21 N 1015,4 10 0,0
28.09.2020 01:00:00 14,5 9,3 27 14 40 22 NNW 1015,3 - 0,0
28.09.2020 00:00:00 15,1 8,8 29 15 42 23 N 1015,0 - 0,0
27.09.2020 23:00:00 15,5 7,5 29 16 44 24 N 1015,0 14 0,0
27.09.2020 22:00:00 15,7 5,9 31 17 42 23 N 1014,8 - 0,0
27.09.2020 21:00:00 15,9 6,6 33 18 44 24 N 1014,5 - 0,0
27.09.2020 20:00:00 15,8 7,3 34 18 44 24 NNW 1014,2 14 0,0
27.09.2020 19:00:00 16,1 7,3 29 16 41 22 N 1014,0 - 0,0
27.09.2020 18:00:00 15,8 7,3 31 17 43 23 NNW 1013,8 - 0,0
27.09.2020 17:00:00 15,5 7,3 34 18 49 26 NNW 1013,8 13 0,0
27.09.2020 16:00:00 15,1 7,1 36 19 47 25 NNW 1014,0 - 0,0
27.09.2020 15:00:00 14,6 7,2 35 19 50 27 NNW 1014,2 - 0,0
27.09.2020 14:00:00 13,7 6,5 32 17 49 26 NNW 1014,7 10 0,0
27.09.2020 13:00:00 12,9 6,2 39 21 55 30 N 1014,4 - 0,0
27.09.2020 12:00:00 12,1 5,7 39 21 55 30 N 1014,6 - 0,0
27.09.2020 11:00:00 11,7 5,8 41 22 59 32 N 1014,4 10 0,0
27.09.2020 10:00:00 11,6 5,7 42 23 61 33 N 1014,3 - 0,0
27.09.2020 09:00:00 11,8 5,9 44 24 63 34 NNW 1014,1 - 0,0
27.09.2020 08:00:00 11,9 5,7 43 23 66 36 N 1013,9 9 0,0
27.09.2020 07:00:00 12,6 6,0 48 26 65 35 N 1013,8 - 0,0
27.09.2020 06:00:00 12,7 6,3 41 22 58 31 NNW 1013,9 - 0,0
27.09.2020 05:00:00 13,0 7,0 39 21 55 30 NNW 1014,3 11 0,0
27.09.2020 04:00:00 12,7 5,6 38 20 51 28 N 1014,7 - 0,0
27.09.2020 03:00:00 13,0 6,6 37 20 56 30 N 1014,8 - 0,0
27.09.2020 02:00:00 13,1 6,0 40 22 62 33 N 1015,1 10 0,0
27.09.2020 01:00:00 13,3 6,4 40 21 57 31 N 1015,0 - 0,0
27.09.2020 00:00:00 13,4 6,5 44 24 59 32 N 1014,8 - 0,0
26.09.2020 23:00:00 13,4 6,7 41 22 55 30 N 1014,7 15 0,0
26.09.2020 22:00:00 13,8 6,2 42 23 58 31 N 1014,4 - 0,0
26.09.2020 21:00:00 13,9 5,0 35 19 54 29 N 1014,2 - 0,0
26.09.2020 20:00:00 14,0 3,7 37 20 51 28 N 1013,7 15 0,0
26.09.2020 19:00:00 14,3 4,3 34 18 51 28 N 1013,4 - 0,0
26.09.2020 18:00:00 14,2 4,2 31 17 48 26 N 1013,0 - 0,0
26.09.2020 17:00:00 13,9 3,4 31 17 47 25 NNW 1013,1 16 0,0
26.09.2020 16:00:00 13,7 4,0 29 16 44 24 N 1012,9 - 0,0
26.09.2020 15:00:00 13,6 4,7 31 17 50 27 NNW 1013,1 - 0,0
26.09.2020 14:00:00 13,2 4,9 33 18 48 26 N 1013,4 - 0,0
26.09.2020 13:00:00 13,1 4,3 29 16 45 24 N 1013,6 - 0,0
26.09.2020 12:00:00 12,9 4,6 30 16 51 28 N 1013,9 - 0,0
26.09.2020 11:00:00 12,6 4,8 33 18 48 26 N 1013,7 13 0,0
26.09.2020 10:00:00 12,7 4,6 32 17 48 26 N 1013,3 - 0,0
26.09.2020 09:00:00 12,9 5,8 33 18 50 27 NNW 1012,9 - 0,0
26.09.2020 08:00:00 12,7 3,4 38 21 53 29 NNW 1012,8 13 0,0
26.09.2020 07:00:00 13,0 4,9 42 23 55 30 NW 1012,7 - 0,0
26.09.2020 06:00:00 13,2 5,4 39 21 55 30 NNW 1013,0 - 0,0
26.09.2020 05:00:00 13,2 4,9 44 24 57 31 NNW 1013,1 10 0,0
26.09.2020 04:00:00 13,4 6,3 44 24 61 33 NNW 1013,2 - 0,0
26.09.2020 03:00:00 13,6 6,5 43 23 59 32 NNW 1013,4 - 0,0
26.09.2020 02:00:00 13,8 7,3 44 24 66 36 NNW 1013,5 10 0,0
26.09.2020 01:00:00 13,8 6,4 47 25 64 35 NNW 1013,6 - 0,0
26.09.2020 00:00:00 13,6 7,1 42 23 61 33 NNW 1013,6 - 0,0
25.09.2020 23:00:00 14,0 8,0 47 25 65 35 NW 1013,5 16 0,0
25.09.2020 22:00:00 14,4 7,4 51 27 72 39 NW 1013,0 - 0,0
25.09.2020 21:00:00 14,6 6,4 51 28 67 36 NW 1012,3 - 0,0
25.09.2020 20:00:00 14,6 6,9 51 28 68 37 NW 1012,0 16 0,0
25.09.2020 19:00:00 15,1 7,4 49 26 66 35 NW 1010,9 - 0,0
25.09.2020 18:00:00 15,3 7,1 51 28 70 38 NW 1010,7 - 0,0
25.09.2020 17:00:00 15,8 8,0 48 26 68 37 NW 1010,4 16 0,0
25.09.2020 16:00:00 15,8 7,5 50 27 69 38 NW 1009,6 - 0,0
25.09.2020 15:00:00 14,8 5,3 50 27 69 37 NW 1009,3 - 0,0
25.09.2020 14:00:00 15,0 5,5 46 25 64 34 NNW 1008,9 16 0,0
25.09.2020 13:00:00 14,2 6,0 50 27 65 35 NNW 1008,5 - 0,0
25.09.2020 12:00:00 13,6 6,2 48 26 69 37 NNW 1007,5 - 0,0
25.09.2020 11:00:00 13,2 7,4 47 26 66 36 NNW 1006,3 16 0,0
25.09.2020 10:00:00 12,9 7,3 46 25 60 32 NNW 1004,5 - 0,0
25.09.2020 09:00:00 13,1 7,7 45 24 61 33 NNW 1002,8 - 0,0
25.09.2020 08:00:00 13,1 7,3 44 24 57 31 NNW 1001,5 14 0,0
25.09.2020 07:00:00 13,0 7,9 42 23 59 32 NNW 1000,5 - 0,4
25.09.2020 06:00:00 12,9 7,3 43 23 65 35 NNW 999,6 - 0,0
25.09.2020 05:00:00 13,0 8,3 49 27 63 34 NNW 998,3 12 0,0
25.09.2020 04:00:00 12,8 7,9 41 22 70 38 NNW 997,0 - 0,0
25.09.2020 03:00:00 12,8 8,3 44 24 57 31 NNW 994,5 - 0,0
25.09.2020 02:00:00 13,5 9,7 40 21 62 34 NW 993,0 10 1,2
25.09.2020 01:00:00 13,8 9,4 40 22 74 40 W 992,1 - 0,2
25.09.2020 00:00:00 13,5 9,7 44 24 77 42 W 992,0 - 0,4
24.09.2020 23:00:00 12,8 8,9 54 29 74 40 WSW 992,0 10 1,6
24.09.2020 22:00:00 12,5 8,6 54 29 79 43 SW 992,9 - 0,2
24.09.2020 21:00:00 12,7 6,7 51 27 77 42 WSW 993,8 - 0,2
24.09.2020 20:00:00 13,5 6,1 46 25 65 35 WSW 994,4 14 0,0
24.09.2020 19:00:00 12,6 7,1 41 22 65 35 W 994,7 - 0,2
24.09.2020 18:00:00 12,0 6,9 36 19 76 41 WSW 995,3 - 0,0
24.09.2020 17:00:00 13,7 7,9 42 23 67 36 WSW 995,3 12 0,0
24.09.2020 16:00:00 13,7 7,0 48 26 61 33 SW 995,9 - 0,0
24.09.2020 15:00:00 13,3 7,7 39 21 59 32 SW 996,9 - 0,0
24.09.2020 14:00:00 13,0 9,1 47 25 83 45 WSW 997,6 10 2,8
24.09.2020 13:00:00 14,9 7,9 45 24 66 36 SW 997,8 - 0,0
24.09.2020 12:00:00 14,7 7,7 42 23 62 34 WSW 998,4 - 0,0
24.09.2020 11:00:00 15,0 6,8 48 26 65 35 WSW 998,6 12 0,0
24.09.2020 10:00:00 14,5 8,2 46 25 66 36 WSW 998,8 - 0,0
24.09.2020 09:00:00 14,4 9,0 45 25 66 36 WSW 998,7 - 0,0
24.09.2020 08:00:00 13,5 10,5 42 23 82 45 WSW 998,6 8 6,9
24.09.2020 07:00:00 14,8 9,6 43 23 75 40 WSW 998,9 - 0,0
24.09.2020 06:00:00 14,9 10,5 57 31 82 45 SW 999,3 - 0,2
24.09.2020 05:00:00 14,7 9,1 52 28 73 39 SSW 1000,2 8 0,0
24.09.2020 04:00:00 14,5 8,2 43 23 63 34 SW 1001,3 - 0,0

tt = Température de l'air
td = dewpoint
ff = Vitesse du vent
fx = gusts
dd = Direction du vent
ppp = reduced air pressure
vv = visibility
rr = Quantités de précipitations

stations d'obs. à proximité